| Date | Time | Temp. (oF) | Dew Point (oF) | Rel. Hum. (%) | Press. (in.) | Wind Dir. | Wind Speed (mph) | Hourly Rainfall (in.) |
|
|---|---|---|---|---|---|---|---|---|---|
| 1 | 11/28 | 00:00 | 31 | 20 | 66 | 29.58 | SW | 6 | 0.00 |
| 2 | 11/27 | 23:00 | 31 | 20 | 66 | 29.59 | W | 9 | 0.00 |
| 3 | 11/27 | 22:00 | 31 | 20 | 66 | 29.58 | W | 13 | 0.00 |
| 4 | 11/27 | 21:00 | 31 | 20 | 65 | 29.58 | SSW | 5 | 0.00 |
| 5 | 11/27 | 20:00 | 31 | 20 | 65 | 29.59 | SSW | 7 | 0.00 |
| 6 | 11/27 | 19:00 | 31 | 20 | 64 | 29.60 | WSW | 8 | 0.00 |
| 7 | 11/27 | 18:00 | 32 | 21 | 65 | 29.60 | WSW | 4 | 0.00 |
| 8 | 11/27 | 17:00 | 32 | 21 | 64 | 29.58 | WSW | 6 | 0.00 |
| 9 | 11/27 | 16:00 | 33 | 22 | 64 | 29.58 | SW | 8 | 0.00 |
| 10 | 11/27 | 15:00 | 34 | 22 | 63 | 29.58 | W | 5 | 0.00 |
| 11 | 11/27 | 14:00 | 34 | 22 | 63 | 29.59 | SSW | 5 | 0.00 |
| 12 | 11/27 | 13:00 | 34 | 22 | 63 | 29.59 | W | 5 | 0.00 |
| 13 | 11/27 | 12:00 | 35 | 22 | 61 | 29.58 | S | 5 | 0.00 |
| 14 | 11/27 | 11:00 | 36 | 24 | 63 | 29.61 | NNW | 7 | 0.00 |
| 15 | 11/27 | 10:00 | 37 | 24 | 61 | 29.61 | SSW | 8 | 0.00 |
| 16 | 11/27 | 09:00 | 36 | 25 | 65 | 29.58 | WNW | 5 | 0.00 |
| 17 | 11/27 | 08:00 | 34 | 25 | 72 | 29.57 | SSW | 10 | 0.00 |
| 18 | 11/27 | 07:00 | 34 | 25 | 72 | 29.56 | S | 6 | 0.00 |
| 19 | 11/27 | 06:00 | 35 | 26 | 72 | 29.54 | NE | 9 | 0.00 |
| 20 | 11/27 | 05:00 | 35 | 26 | 72 | 29.53 | WSW | 13 | 0.00 |
| 21 | 11/27 | 04:00 | 36 | 28 | 75 | 29.52 | SW | 5 | 0.00 |
| 22 | 11/27 | 03:00 | 36 | 29 | 77 | 29.50 | SSW | 4 | 0.00 |
| 23 | 11/27 | 02:00 | 36 | 29 | 77 | 29.49 | SW | 5 | 0.00 |
| 24 | 11/27 | 01:00 | 37 | 30 | 77 | 29.49 | SSW | 2 | 0.00 |